Hourly Weather Roundup
Issued by NWS Central Illinois

Home | Current Version | Previous Version | Text Only | Print | Product List | Glossary On
Versions: 1 2 3 4 5 6 7 8 9 10 11 12 13 14 15 16 17 18 19 20 21 22 23 24 25 26 27 28 29 30 31 32 33 34 35 36 37 38 39 40 41 42 43 44 45 46 47 48 49 50
000
NZUS43 KILX 251210
HWRILX

AREA WEATHER ROUNDUP
NATIONAL WEATHER SERVICE, LINCOLN IL
700 AM CDT SAT OCT 25 2014


CITY           SKY/WX    TMP DP  RH WIND       PRES   REMARKS
BLOOMINGTON    CLEAR     53  52  97 W3        29.98S
6HR MIN TEMP:  52; 6HR MAX TEMP:  60;

CHAMPAIGN      CLEAR     50  49  96 W6        29.98R FOG
6HR MIN TEMP:  48; 6HR MAX TEMP:  58;

DECATUR        CLEAR     57  54  89 W8        29.99R
6HR MIN TEMP:  57; 6HR MAX TEMP:  62;

FLORA          CLEAR     54  53  96 CALM      30.01R
6HR MIN TEMP:  54; 6HR MAX TEMP:  59;

GALESBURG      FOG       51  51  99 CALM      29.97S VSB<1/4
JACKSONVILLE   NOT AVBL
LACON          CLOUDY    54  52  94 CALM      29.96R FOG
6HR MIN TEMP:  50; 6HR MAX TEMP:  61;

LAWRENCEVILLE  PTCLDY    54  52  93 S6        30.00R
6HR MIN TEMP:  50; 6HR MAX TEMP:  56;

LITCHFIELD     MOCLDY    53  52  94 CALM      30.00F FOG
$$


CITY           SKY/WX    TMP DP  RH WIND       PRES   REMARKS
LINCOLN        CLOUDY    56  55  95 CALM      29.98R
6HR MIN TEMP:  51; 6HR MAX TEMP:  61;

MACOMB         FOG       52  52 100 W6        30.01R VSB 1/4
MATTOON        CLEAR     56  53  90 W6        29.98R
6HR MIN TEMP:  56; 6HR MAX TEMP:  61;

MT CARMEL AP   MOCLDY    61  55  82 SW5       30.00R
OLNEY-NOBLE AP PTCLDY    55  52  88 CALM      30.00S
PARIS          CLEAR     53  52  96 SW5       29.98S
6HR MIN TEMP:  53; 6HR MAX TEMP:  60;

PEORIA         FOG       55  52  89 CALM      29.98S VSB 1/8
6HR MIN TEMP:  52; 6HR MAX TEMP:  58;

PONTIAC        FOG       56  56  99 W5        29.97R VSB 1
RANTOUL        CLEAR     51  49  94 W5        29.97R FOG
6HR MIN TEMP:  51; 6HR MAX TEMP:  60;

ROBINSON       CLEAR     57  55  91 SW5       30.00R
6HR MIN TEMP:  50; 6HR MAX TEMP:  60;

SPRINGFIELD    CLOUDY    58  56  93 W3        30.00R
6HR MIN TEMP:  52; 6HR MAX TEMP:  62;

TAYLORVILLE    CLOUDY    55  54  94 W6        30.00S
$$

...REGIONAL REPORTS...


CITY           SKY/WX    TMP DP  RH WIND       PRES   REMARKS
CHICAGO O`HARE PTCLDY    54  52  93 W7        29.90F FOG
KANKAKEE       FOG       54  54  98 W6        29.95S VSB 3/4
MOLINE         FOG       54  53  97 W7        29.97R VSB 1/2
MOUNT VERNON     N/A     52  46  82 CALM      30.02R VSB 1/4
PITTSFIELD     FOG       58  57  94 CALM      30.01F VSB 1/4
QUINCY         FOG       55  54  96 W3        30.00S VSB 1/4
ROCKFORD       FOG       49  48  97 CALM      29.95S VSB 1/8
$$


CITY           SKY/WX    TMP DP  RH WIND       PRES   REMARKS
BURLINGTON     FOG       50  50 100 SW5       29.97S VSB 1/4
CEDAR RAPIDS   CLEAR     46  46 100 NW8       29.98S
DES MOINES     CLEAR     55  43  63 N9        30.02S
KIRKSVILLE     FOG       54  54 100 NW5       30.03R VSB 1/4
OTTUMWA        CLEAR     50  47  89 NW8       30.00R
ST LOUIS       PTCLDY    58  55  90 SW5       30.01S FOG
$$


CITY           SKY/WX    TMP DP  RH WIND       PRES   REMARKS
TERRE HAUTE    PTCLDY    52  50  93 S3        29.98R
EVANSVILLE     MOCLDY    58  53  84 SW7       30.01S
INDIANAPOLIS   MOCLDY    53  50  89 SW8       29.97R
LAFAYETTE      CLEAR     50  50 100 SW3       29.95S
MADISON        PTCLDY    54  52  93 W5        29.90S
MILWAUKEE      PTCLDY    56  52  86 W9        29.88S
$$





USA.gov is the U.S. government's official web portal to all federal, state and local government web resources and services.